DELTA 1 DEB, 29184

Orbit data source: Space-Track

DELTA 1 DEB, 29184 is space debris in LEO originally from a launch on Thu, 11 Jan 1968 UTC launched from the Air Force Western Test Range (AFWTR). Debris objects in space refer to the collection of defunct objects orbiting the Earth. Examples of debris include non-operational satellites, rocket bodies, and fragments generated from explosions, collisions, or faulty payload assembly.

Loading next visibility...
Identifier
29184, 1968-002H
Orbit
LEO
Last TLE update
6 days ago
Origin
Manufacturer
Unknown
Mission
Spacecraft
Bus & Motor
Unknown
Mass
Unknown
Launch date (UTC)
1968-01-11 (57 years ago)
Launch vehicle
Unknown
Launch site
Air Force Western Test Range (AFWTR)
Object type
Payload
Rocket body
Debris
Shape & HBR
Unknown
Radar Cross Section
Small (<0.1 m²)

Expand to show TLE details & history

TLE from 6 days ago
0 DELTA 1 DEB
1 29184U 68002H   25180.84681089  .00000973  00000-0  23347-2 0  9990
2 29184 105.8251  57.5358 0260165 108.5562 254.3975 13.16089167512182
Epoch: 2025-06-29T20:19Z
TLE epoch observation values (Epoch: 2025-06-29T20:19:24.46Z)
Latitude
-0.00005°
Longitude
-165.48121°
Altitude
1,259.91 km
Speed
7.198 km/s
True Right ascension
03h 50m 08s
True Declination
0° 00' 00"
Sunlit
Object was in daylight at epoch
Visualization orbit readout
Latitude
-68.30325°
Longitude
-111.54634°
Altitude
1,420.714 km
Speed
7.057 km/s
Apparent Right ascension
16h 33m 55s
Apparent Declination
-78° 08' 43"
Sunlit
Object is in daylight
Visualization observer readout
Local Sidereal Time
06:08:48
Azimuth
172.526° S
Elevation
-50.555°
Doppler factor
1
Orbital elements
Apogee altitude
1,394.53 km
Perigee altitude
1,000.35 km
Semi-major axis
7,575.577 km
Eccentricity
0.02602
Inclination
105.8251°
RAAN
57.5358°
Arg. of periapsis
108.5562°
True anomaly
Unknown
Mean anomaly
254.3975°
Eccentric anomaly
Unknown
Mean motion
3.29169 °/min
Orbital period
109.37 mins
BSTAR
0.0023347
Loading maneuver chart data...
Loading SW <> Apogee altitude chart data...
Loading historical data...
Loading historical data...
Loading historical data...
Loading historical data...
Loading historical data...
Loading historical data...
Loading historical data...

DELTA 1 DEB Visibility forecast

Observer location: undefined°, undefined°

Span
Click to sort rows by Start time (UTC) header in descending order
Start Az.
Max El. time (UTC)
Max El. Az.
Max El.
End time (UTC)
End Az.
11 mins2025-07-06 04:20:18.606Z42.889° NE2025-07-06 04:25:18.606Z96.764° ESE28.304°2025-07-06 04:31:18.606Z166.672° S
10 mins2025-07-06 06:08:18.606Z4.205° NNE2025-07-06 06:13:18.606Z290.674° WNW33.602°2025-07-06 06:18:18.606Z234.791° WSW
11 mins2025-07-06 14:49:18.606Z126.827° SE2025-07-06 14:54:18.606Z63.644° ENE35.932°2025-07-06 15:00:18.606Z349.475° N
9 mins2025-07-06 16:37:18.606Z203.624° SW2025-07-06 16:41:18.606Z250.621° W27.268°2025-07-06 16:46:18.606Z311.143° NW
|